This is the latest recevied weather packets stored in our database for station/object KE8WMS. If no packets are shown the sender has not sent any weather packets the latest 10 day(s).
| Time | Temp. | Humidity | Pressure | Rain* | Wind** | Luminosity | Snow |
|---|---|---|---|---|---|---|---|
| 1787954598 | 22.22° C | 68% | 1016.9 hPa | 0 mm | - | 47 W/m² | - |
| 1787954297 | 22.22° C | 65% | 1017.1 hPa | 0 mm | - | 47 W/m² | - |
| 1787953992 | 22.22° C | 66% | 1016.9 hPa | 0 mm | - | 126 W/m² | - |
| 1787953690 | 22.22° C | 62% | 1017 hPa | 0 mm | - | 234 W/m² | - |
| 1787953386 | 22.22° C | 63% | 1016.8 hPa | 0 mm | - | 225 W/m² | - |
| 1787953084 | 22.22° C | 62% | 1016.9 hPa | 0 mm | - | 261 W/m² | - |
| 1787952783 | 22.78° C | 65% | 1017.1 hPa | 0 mm | - | 229 W/m² | - |
| 1787952478 | 22.78° C | 61% | 1016.9 hPa | 0 mm | - | 291 W/m² | - |
| 1787952175 | 22.78° C | 64% | 1016.8 hPa | 0 mm | - | 302 W/m² | - |
| 1787951873 | 22.22° C | 63% | 1017 hPa | 0 mm | - | 317 W/m² | - |
| 1787951569 | 23.33° C | 61% | 1017.3 hPa | 0 mm | - | 332 W/m² | - |
| 1787951265 | 22.78° C | 65% | 1017 hPa | 0 mm | - | 348 W/m² | - |
| 1787950961 | 22.78° C | 66% | 1017.1 hPa | 0 mm | - | 359 W/m² | - |
| 1787950656 | 22.78° C | 66% | 1016.9 hPa | 0 mm | - | 374 W/m² | - |
| 1787950352 | 22.22° C | 68% | 1017.1 hPa | 0 mm | - | 389 W/m² | - |
| 1787950048 | 22.78° C | 63% | 1017.2 hPa | 0 mm | - | 404 W/m² | - |
| 1787949744 | 22.78° C | 66% | 1017 hPa | 0 mm | - | 415 W/m² | - |
| 1787949443 | 22.78° C | 69% | 1017.1 hPa | 0 mm | - | 427 W/m² | - |
| 1787949138 | 23.33° C | 68% | 1017.1 hPa | 0 mm | - | 443 W/m² | - |
| 1787948834 | 23.33° C | 68% | 1017.3 hPa | 0 mm | - | 454 W/m² | - |
| 1787948534 | 22.22° C | 70% | 1017.3 hPa | 0 mm | - | 465 W/m² | - |
| 1787948229 | 22.78° C | 70% | 1017.1 hPa | 0 mm | - | 479 W/m² | - |
| 1787947928 | 22.22° C | 69% | 1017.1 hPa | 0 mm | - | 493 W/m² | - |
| 1787947623 | 22.22° C | 71% | 1017 hPa | 0 mm | - | 502 W/m² | - |
| 1787947321 | 22.22° C | 67% | 1017.3 hPa | 0 mm | - | 514 W/m² | - |
* Rain latest hour (hover to see other rain measurements)
** Current wind speed in m/s (hover to see current wind gust speed)